FW7551 Weather Reports


Display with metric or nautical units.
time (UTC)temp
F
wind
direction
speed
MPH
gust
MPH
rain 1hr
in
rain 24hr
in
rain mn
in
humidity
%
barometer
mb
20260505091926 54 147 0.0 2.0 0.00 0.00 0.00 94 1009.0
20260505091423 55 149 1.0 3.0 0.00 0.00 0.00 94 1009.3
20260505090921 55 164 5.0 10.0 0.00 0.00 0.00 94 1009.0
20260505090420 55 173 3.0 7.0 0.00 0.00 0.00 94 1009.2
20260505085917 55 152 5.0 7.0 0.00 0.00 0.00 94 1009.2
20260505085415 55 176 2.0 5.0 0.00 0.00 0.00 94 1009.5
20260505084913 55 134 4.0 6.0 0.00 0.00 0.00 94 1009.3
20260505084410 55 159 3.0 6.0 0.00 0.00 0.00 94 1009.2
20260505083908 55 169 2.0 3.0 0.00 0.00 0.00 93 1009.0
20260505083406 55 177 1.0 9.0 0.00 0.00 0.00 93 1009.0
20260505082901 55 184 3.0 7.0 0.00 0.00 0.00 93 1009.0
20260505082357 55 145 2.0 3.0 0.00 0.00 0.00 93 1009.2
20260505081854 55 167 2.0 9.0 0.00 0.00 0.00 93 1009.2
20260505081351 55 158 3.0 6.0 0.00 0.00 0.00 92 1009.1
20260505080848 55 152 4.0 6.0 0.00 0.00 0.00 92 1009.3
20260505080344 55 145 4.0 6.0 0.00 0.00 0.00 92 1009.0
20260505075839 55 127 4.0 6.0 0.00 0.00 0.00 92 1009.0
20260505075337 55 171 3.0 7.0 0.00 0.00 0.00 92 1009.0
20260505074834 55 170 3.0 6.0 0.00 0.00 0.00 92 1008.9
20260505074331 55 170 3.0 9.0 0.00 0.00 0.00 92 1009.1
20260505073828 55 183 3.0 7.0 0.00 0.00 0.00 92 1009.0
20260505073326 55 203 3.0 5.0 0.00 0.00 0.00 92 1009.0
20260505072823 55 210 7.0 10.0 0.00 0.00 0.00 92 1008.8
20260505072319 55 159 3.0 5.0 0.00 0.00 0.00 92 1008.9
20260505071815 55 151 3.0 13.0 0.00 0.00 0.00 91 1009.3
20260505071311 55 141 3.0 6.0 0.00 0.00 0.00 91 1009.1
20260505070809 55 189 5.0 6.0 0.00 0.00 0.00 91 1009.1
20260505070306 55 143 2.0 9.0 0.00 0.00 0.00 91 1008.9
20260505065800 55 151 3.0 7.0 0.00 0.00 0.00 91 1008.9
20260505065258 55 176 3.0 6.0 0.00 0.00 0.00 90 1009.3
20260505064755 55 209 3.0 3.0 0.00 0.00 0.00 90 1009.0
20260505064252 56 163 3.0 8.0 0.00 0.00 0.00 90 1009.2
20260505063750 56 171 3.0 7.0 0.00 0.00 0.00 90 1008.9
20260505063246 56 179 4.0 5.0 0.00 0.00 0.00 90 1009.3
20260505062742 56 121 3.0 6.0 0.00 0.00 0.00 90 1009.2
20260505062240 56 226 2.0 10.0 0.00 0.00 0.00 90 1009.3
20260505061737 56 170 5.0 8.0 0.00 0.00 0.00 90 1009.0
20260505061235 56 146 3.0 8.0 0.00 0.00 0.00 90 1009.3
20260505060732 56 147 4.0 6.0 0.00 0.00 0.00 90 1009.2
20260505060229 56 161 3.0 5.0 0.00 0.00 0.00 90 1009.5
20260505055724 56 183 4.0 7.0 0.00 0.00 0.00 90 1009.6
20260505055221 56 157 3.0 9.0 0.00 0.00 0.00 89 1009.6
20260505054718 56 162 1.0 8.0 0.00 0.00 0.00 89 1009.3
20260505054216 56 153 2.0 7.0 0.00 0.00 0.00 89 1009.7
20260505053714 56 224 5.0 6.0 0.00 0.00 0.00 89 1009.3
20260505053210 56 175 3.0 6.0 0.00 0.00 0.00 89 1009.4
20260505052707 56 139 2.0 3.0 0.00 0.00 0.00 88 1009.5
20260505052204 56 167 4.0 9.0 0.00 0.00 0.00 88 1009.5
20260505051701 56 163 4.0 6.0 0.00 0.00 0.00 87 1009.6
20260505051159 56 185 3.0 7.0 0.00 0.00 0.00 87 1009.5
20260505050656 56 234 5.0 6.0 0.00 0.00 0.00 86 1009.7
20260505050155 56 181 3.0 6.0 0.00 0.00 0.00 85 1009.9
20260505041625 57 168 4.0 9.0 0.00 0.00 0.00 80 1010.0
20260505041122 58 149 3.0 5.0 0.00 0.00 0.00 79 1010.1
20260505040619 58 125 3.0 3.0 0.00 0.00 0.00 79 1009.9
20260505040116 58 173 4.0 7.0 0.00 0.00 0.00 78 1009.8
20260505035613 58 149 3.0 7.0 0.00 0.00 0.00 78 1009.9
20260505035109 58 160 3.0 6.0 0.00 0.00 0.00 78 1010.0
20260505034606 58 160 2.0 6.0 0.00 0.00 0.00 78 1009.9
20260505034103 58 155 3.0 5.0 0.00 0.00 0.00 79 1010.0
20260505033559 58 175 5.0 8.0 0.00 0.00 0.00 79 1010.0
20260505033058 57 156 2.0 6.0 0.00 0.00 0.00 79 1009.7
20260505032555 58 167 3.0 6.0 0.00 0.00 0.00 78 1010.0
20260505032051 57 167 6.0 7.0 0.00 0.00 0.00 79 1009.8
20260505031549 57 188 6.0 8.0 0.00 0.00 0.00 78 1010.0
20260505031045 57 178 5.0 10.0 0.00 0.00 0.00 79 1010.0
20260505030542 57 149 2.0 5.0 0.00 0.00 0.00 78 1010.1
20260505030038 57 154 3.0 5.0 0.00 0.00 0.00 78 1010.0
20260505025534 57 165 3.0 10.0 0.00 0.00 0.00 77 1010.1
20260505025033 57 193 2.0 5.0 0.00 0.00 0.00 77 1009.9
20260505024530 57 159 1.0 7.0 0.00 0.00 0.00 76 1010.2
20260505024027 57 144 1.0 5.0 0.00 0.00 0.00 76 1009.9
20260505023524 57 194 7.0 9.0 0.00 0.00 0.00 76 1009.9
20260505023021 58 177 2.0 7.0 0.00 0.00 0.00 76 1010.0
20260505022519 58 210 3.0 5.0 0.00 0.00 0.00 75 1009.9
20260505022016 58 151 1.0 5.0 0.00 0.00 0.00 75 1010.0
20260505021512 58 168 2.0 6.0 0.00 0.00 0.00 75 1010.1
20260505021009 58 173 2.0 6.0 0.00 0.00 0.00 75 1010.0
20260505020503 58 253 3.0 7.0 0.00 0.00 0.00 75 1010.0
20260505020000 58 156 2.0 5.0 0.00 0.00 0.00 75 1010.2
20260505015457 58 140 3.0 8.0 0.00 0.00 0.00 75 1010.0
20260505014954 58 178 2.0 9.0 0.00 0.00 0.00 75 1010.2
20260505014451 58 158 2.0 8.0 0.00 0.00 0.00 75 1010.0
20260505013948 58 145 5.0 7.0 0.00 0.00 0.00 75 1010.3
20260505013445 57 152 4.0 7.0 0.00 0.00 0.00 75 1010.1
20260505012943 58 154 3.0 8.0 0.00 0.00 0.00 74 1009.7
20260505012441 57 199 4.0 6.0 0.00 0.00 0.00 74 1010.0
20260505011937 57 174 2.0 2.0 0.00 0.00 0.00 74 1009.9
20260505011433 58 163 2.0 3.0 0.00 0.00 0.00 74 1009.9
20260505010930 58 132 3.0 9.0 0.00 0.00 0.00 74 1009.6
20260505010426 58 151 3.0 6.0 0.00 0.00 0.00 73 1009.5
20260505005922 58 169 1.0 10.0 0.00 0.00 0.00 73 1009.4
20260505005419 58 75 1.0 11.0 0.00 0.00 0.00 73 1009.4
20260505004917 58 238 2.0 8.0 0.00 0.00 0.00 73 1009.5
20260505004413 57 164 3.0 6.0 0.00 0.00 0.00 74 1009.3
20260505003910 57 172 4.0 6.0 0.00 0.00 0.00 74 1009.4
20260505003407 57 194 3.0 10.0 0.00 0.00 0.00 75 1009.1
20260505002903 57 154 4.0 6.0 0.00 0.00 0.00 77 1009.3
20260505002400 57 149 1.0 10.0 0.00 0.00 0.00 77 1009.1
20260505001859 57 164 6.0 8.0 0.00 0.00 0.00 78 1009.1
20260505001355 57 138 0.0 10.0 0.00 0.00 0.00 78 1009.1
20260505000853 57 163 4.0 10.0 0.00 0.00 0.00 77 1008.9
20260505000351 57 180 4.0 8.0 0.00 0.00 0.00 77 1008.9
20260504235847 57 169 2.0 16.0 0.00 0.00 0.00 76 1008.7
20260504235344 57 181 9.0 11.0 0.00 0.00 0.00 75 1008.7
20260504234840 57 125 6.0 9.0 0.00 0.00 0.00 74 1008.9
20260504234338 58 132 5.0 7.0 0.00 0.00 0.00 73 1008.6
20260504233834 58 104 4.0 7.0 0.00 0.00 0.00 73 1008.6
20260504233330 58 178 3.0 8.0 0.00 0.00 0.00 72 1008.6
20260504232827 58 134 3.0 8.0 0.00 0.00 0.00 71 1008.5
20260504232324 59 146 7.0 11.0 0.00 0.00 0.00 70 1008.6
20260504231821 59 131 5.0 10.0 0.00 0.00 0.00 70 1008.4
20260504231317 59 131 3.0 11.0 0.00 0.00 0.00 70 1008.2
20260504230813 59 148 6.0 13.0 0.00 0.00 0.00 69 1008.5
20260504230312 59 196 6.0 11.0 0.00 0.00 0.00 69 1008.1
20260504225810 59 161 4.0 8.0 0.00 0.00 0.00 69 1008.0
20260504225306 60 173 5.0 9.0 0.00 0.00 0.00 67 1008.4
20260504224803 60 144 4.0 9.0 0.00 0.00 0.00 67 1008.4
20260504224301 60 134 4.0 10.0 0.00 0.00 0.00 66 1008.1
20260504223757 60 203 4.0 8.0 0.00 0.00 0.00 66 1008.4
20260504223252 60 196 5.0 9.0 0.00 0.00 0.00 65 1008.4
20260504222749 61 140 1.0 8.0 0.00 0.00 0.00 65 1008.4
20260504222246 61 128 4.0 8.0 0.00 0.00 0.00 63 1008.6
20260504221744 61 184 3.0 10.0 0.00 0.00 0.00 63 1008.3
20260504221241 62 132 2.0 11.0 0.00 0.00 0.00 62 1008.6
20260504220737 62 147 5.0 7.0 0.00 0.00 0.00 62 1008.3
20260504220235 63 224 7.0 11.0 0.00 0.00 0.00 61 1008.6
20260504215732 62 164 3.0 13.0 0.00 0.00 0.00 61 1008.7
20260504215228 63 96 4.0 7.0 0.00 0.00 0.00 61 1008.7
20260504214724 63 154 5.0 10.0 0.00 0.00 0.00 61 1008.6
20260504214221 63 211 5.0 18.0 0.00 0.00 0.00 59 1008.7
20260504213712 64 227 3.0 6.0 0.00 0.00 0.00 58 1008.7
20260504213208 64 177 4.0 8.0 0.00 0.00 0.00 57 1008.7
20260504212706 64 141 4.0 10.0 0.00 0.00 0.00 57 1008.6
20260504212203 64 157 5.0 13.0 0.00 0.00 0.00 57 1008.4
20260504211700 64 154 4.0 10.0 0.00 0.00 0.00 57 1008.7
20260504211155 65 140 4.0 7.0 0.00 0.00 0.00 57 1008.8
20260504210653 65 159 3.0 9.0 0.00 0.00 0.00 57 1008.6
20260504210150 65 147 5.0 10.0 0.00 0.00 0.00 56 1008.5
20260504205648 65 172 7.0 10.0 0.00 0.00 0.00 56 1008.6
20260504205144 65 199 5.0 13.0 0.00 0.00 0.00 55 1008.6
20260504204643 66 292 2.0 9.0 0.00 0.00 0.00 57 1008.7
20260504204141 66 141 3.0 6.0 0.00 0.00 0.00 54 1008.6
20260504203640 66 197 9.0 10.0 0.00 0.00 0.00 54 1008.9
20260504203137 66 204 3.0 13.0 0.00 0.00 0.00 53 1008.6
20260504202637 67 166 3.0 10.0 0.00 0.00 0.00 52 1008.7
20260504202134 66 167 2.0 8.0 0.00 0.00 0.00 53 1008.5
20260504201631 67 203 5.0 10.0 0.00 0.00 0.00 52 1008.8
20260504201129 66 159 1.0 11.0 0.00 0.00 0.00 53 1008.7
20260504200626 66 138 7.0 13.0 0.00 0.00 0.00 51 1008.8
20260504200122 68 176 10.0 14.0 0.00 0.00 0.00 50 1008.8
20260504195618 68 247 2.0 15.0 0.00 0.00 0.00 50 1008.9
20260504195115 68 214 5.0 8.0 0.00 0.00 0.00 51 1008.7
20260504194612 69 184 3.0 7.0 0.00 0.00 0.00 49 1008.6
20260504194107 68 172 0.0 9.0 0.00 0.00 0.00 50 1009.1
20260504193604 68 161 6.0 11.0 0.00 0.00 0.00 47 1008.9
20260504193103 68 190 5.0 13.0 0.00 0.00 0.00 48 1008.8
20260504192600 68 131 1.0 11.0 0.00 0.00 0.00 49 1008.8
20260504192058 68 134 2.0 9.0 0.00 0.00 0.00 49 1008.8
20260504191556 67 124 3.0 9.0 0.00 0.00 0.00 49 1009.0
20260504191052 68 158 5.0 10.0 0.00 0.00 0.00 49 1008.9
20260504190548 69 145 5.0 7.0 0.00 0.00 0.00 48 1009.0
20260504190044 68 152 4.0 9.0 0.00 0.00 0.00 49 1008.9
20260504185542 68 80 3.0 11.0 0.00 0.00 0.00 46 1009.3
20260504185038 68 134 1.0 13.0 0.00 0.00 0.00 46 1009.3
20260504184534 69 174 4.0 14.0 0.00 0.00 0.00 45 1009.1
20260504184029 68 144 6.0 8.0 0.00 0.00 0.00 46 1009.4
20260504183527 68 297 3.0 9.0 0.00 0.00 0.00 45 1009.4
20260504183025 67 232 7.0 13.0 0.00 0.00 0.00 45 1009.2
20260504182521 68 153 3.0 6.0 0.00 0.00 0.00 46 1009.8
20260504182019 68 194 3.0 7.0 0.00 0.00 0.00 45 1009.6
20260504181515 68 134 2.0 8.0 0.00 0.00 0.00 49 1009.5
20260504181014 67 135 9.0 13.0 0.00 0.00 0.00 46 1009.8
20260504180512 67 24 5.0 11.0 0.00 0.00 0.00 46 1009.6
20260504180010 68 164 2.0 10.0 0.00 0.00 0.00 47 1010.0
20260504175508 67 171 1.0 7.0 0.00 0.00 0.00 45 1009.8
20260504175004 67 226 3.0 8.0 0.00 0.00 0.00 47 1010.1
20260504174502 67 232 5.0 9.0 0.00 0.00 0.00 46 1010.0
20260504173959 67 286 7.0 13.0 0.00 0.00 0.00 44 1010.2
20260504173456 68 257 6.0 11.0 0.00 0.00 0.00 45 1009.9
20260504172953 68 101 2.0 6.0 0.00 0.00 0.00 47 1009.8
20260504172449 67 167 3.0 9.0 0.00 0.00 0.00 46 1010.1
20260504171946 68 316 5.0 9.0 0.00 0.00 0.00 46 1010.3
20260504171443 67 359 5.0 15.0 0.00 0.00 0.00 46 1010.1
20260504170940 67 199 2.0 6.0 0.00 0.00 0.00 48 1010.1
20260504170436 67 144 5.0 11.0 0.00 0.00 0.00 45 1010.2
20260504160355 67 56 2.0 13.0 0.00 0.00 0.00 39 1010.8
20260504150820 66 307 3.0 7.0 0.00 0.00 0.00 38 1011.7
20260504150316 66 271 5.0 9.0 0.00 0.00 0.00 39 1011.4
20260504141247 63 256 3.0 8.0 0.00 0.00 0.00 46 1011.9
20260504140743 63 24 2.0 6.0 0.00 0.00 0.00 45 1011.8
20260504140239 63 131 2.0 7.0 0.00 0.00 0.00 44 1011.7
20260504130707 60 184 2.0 5.0 0.00 0.00 0.00 51 1012.2
20260504130203 60 151 3.0 8.0 0.00 0.00 0.00 51 1012.4
20260504120127 56 156 0.0 1.0 0.00 0.00 0.00 55 1012.6
20260504110555 52 114 1.0 3.0 0.00 0.00 0.00 60 1012.9
20260504100516 48 157 2.0 2.0 0.00 0.00 0.00 64 1012.7